Location: ??????
(42.0089°N, 44.3281°E)
Time: 05:17:25
(UTC+00:00)

Cosmos 2100 Rocket - Visible Passes

Search period start: 21 May 2022 00:00
Search period end: 31 May 2022 00:00
Orbit: 955 x 1001 km, 82.9° (Epoch: 20 May)

Date Brightness Start Highest point End Pass type
(mag) Time Alt. Az. Time Alt. Az. Time Alt. Az.
21 May 6.8 18:14:29 10° W 18:17:23 13° WNW 18:20:17 10° NW visible
22 May 5.1 16:51:23 10° SSW 16:57:19 49° WNW 17:03:16 10° N visible
23 May 6.2 17:18:39 10° SW 17:23:47 27° WNW 17:28:57 10° NNW visible
24 May 6.8 17:47:03 10° W 17:50:28 15° WNW 17:53:55 10° NNW visible
26 May 6.1 16:51:36 10° SW 16:56:55 30° WNW 17:02:17 10° NNW visible
27 May 6.8 17:19:42 10° WSW 17:23:33 17° WNW 17:27:27 10° NNW visible
